Regional Weather Roundup
Issued by NWS

Home | Current Version | Previous Version | Text Only | Print | Product List | Glossary On
Versions: 1 2 3 4 5 6 7 8 9 10 11 12 13 14 15 16 17 18 19 20 21 22 23 24 25 26 27 28 29 30 31 32 33 34 35 36 37 38 39 40 41 42 43 44 45 46 47 48 49 50
000
ASHW40 PHFO 262332
RWRHI

WEATHER ROUNDUP FOR HAWAII
NATIONAL WEATHER SERVICE HONOLULU HI
100 PM HST THU MAY 26 2016

THIS IS AN AUTOMATED REPORT THAT HAS NOT BEEN QUALITY CONTROLLED.

NOTE..."FAIR" INDICATES FEW OR NO CLOUDS BELOW 12,000 FEET WITH NO
SIGNIFICANT WEATHER AND/OR OBSTRUCTIONS TO VISIBILITY.

* - THESE SITES REPORT LIMITED FIELDS

HIZ001>004-270000-
KAUAI-NIIHAU-

CITY           SKY/WX    TMP DP  RH WIND       PRES   REMARKS
LIHUE APT      MOSUNNY   80  71  74 E9        30.10F
PORT ALLEN*      N/A     84 N/A N/A SE16        N/A
POIPU*           N/A     82 N/A N/A E6G12       N/A
PRINCEVILLE*     N/A     81 N/A N/A E8G14       N/A
KOKOLE POINT*  NOT AVBL
MOLOAA DAIRY*    N/A     79  70  73 E10G17      N/A
WAIMEA HTS*    NOT AVBL
PUU OPAE*      NOT AVBL
PUU LUA*       NOT AVBL
MAKAHA RIDGE*    N/A     79  66  65 N2G8        N/A
$$

HIZ005>011-270000-
OAHU-

CITY           SKY/WX    TMP DP  RH WIND       PRES   REMARKS
HONOLULU       HVY RAIN  75  71  87 VRB3      30.08F FOG
KALAELOA       PTSUNNY   81  69  67 SE8       30.09S
KANEOHE MCB    CLOUDY    81  70  69 NE9       30.06F
WHEELER FIELD  FAIR      79  69  71 E10       30.08F
BELLOWS*         N/A    N/A N/A N/A NE13        N/A
KAHUKU*          N/A    N/A N/A N/A VRB8G18     N/A
WHEELER*       NOT AVBL
WAIANAE HARBOR NOT AVBL
DILLINGHAM*      N/A     84  70  61 MISG        N/A
KAHUKU TRN*      N/A     84  75  74 CALM        N/A  HX  92
KAWAILOA*        N/A     73  66  78 E9G16       N/A
KII*             N/A     79  70  73 E13G18      N/A
MAKUA RANGE*     N/A     79  70  73 NE1         N/A
OAHU FOREST NW NOT AVBL
SCHOFIELD BRK*   N/A     81  68  65 MISG        N/A
SCHOFIELD S*   NOT AVBL
WAIANAE VLY*   NOT AVBL
KUAOKALA*      NOT AVBL
HONOULIUULI*   NOT AVBL
MOKUOLOE IS*   NOT AVBL
PALEHUA*       NOT AVBL
WAIAWA PHB*    NOT AVBL
$$

HIZ012>013-270000-
MOLOKAI-

CITY           SKY/WX    TMP DP  RH WIND       PRES   REMARKS
MOLOKAI AIRPT  MOSUNNY   81  68  64 S10G16    30.08F
KALAUPAPA      NOT AVBL
MAKAPULAPAI*     N/A     82  72  69 E17G25      N/A
MOLOKAI 1*     NOT AVBL
PUU ALII*        N/A     69  64  83 NE2         N/A
$$

HIZ016-270000-
KAHOOLAWE-

CITY           SKY/WX    TMP DP  RH WIND       PRES   REMARKS
KAHOOLAWE*       N/A     75 N/A N/A SE1         N/A
HAKIOAWA*        N/A     95  86  74 MISG      30.48  HX 127
HONOKANAIA*      N/A     84  69  59 E14G26    30.02
KANELOA*         N/A     79  70  73 E15G24    30.15
KEALIALALO*    NOT AVBL
LUA MAKIKA*    NOT AVBL
$$

HIZ014>015-270000-
LANAI-

CITY           SKY/WX    TMP DP  RH WIND       PRES   REMARKS
LANAI CITY     PTSUNNY   77  67  71 SE9G17    30.13F
LANAI 1*       NOT AVBL
$$

HIZ017>028-270000-
MAUI-

CITY           SKY/WX    TMP DP  RH WIND       PRES   REMARKS
KAHULUI        MOSUNNY   87  70  56 NE13G20   30.05F HX  92
KAPALUA-W MAUI LGT RAIN  77  68  73 NE12      30.10
HANA AIRPORT   NOT AVBL
HANA*            N/A     81 N/A N/A E10G17      N/A
HALEAKALA SUMM   N/A     52  45  76 N8G22       N/A
MAALAEA BAY*     N/A     84 N/A N/A N12G17      N/A
HALEAKALA*     NOT AVBL
KAUPO GAP*     NOT AVBL
KULA 1*          N/A     58  56  93 NW3         N/A
$$

HIZ023>026-270000-
BIG ISLAND OF HAWAII COAST AND LOWER SLOPES-

CITY           SKY/WX    TMP DP  RH WIND       PRES   REMARKS
KAILUA KONA    PTSUNNY   83  71  67 W13       30.05F
HILO           PTSUNNY   84  68  58 E12       30.08F
HONOKAA*         N/A     73 N/A N/A VRB1        N/A
KAWAIHAE MWT*    N/A     81 N/A N/A W8          N/A
KAWAIHAE*        N/A     79 N/A N/A W9        30.06S
SOUTH POINT*     N/A     77 N/A N/A NE17G24     N/A
UPOLU AIRPORT*   N/A    N/A N/A N/A NE17G25     N/A
KAMUELA*       CLOUDY    73  64  73 N10       30.17S
HAKALAU*         N/A     64  56  75 S5G13       N/A
KALOKO-HONOKO*   N/A     82  68  61 CALM      30.04F
PALI 2*          N/A     75  64  69 W17G26      N/A
KEALAKOMO*       N/A     82  70  65 E17G23      N/A
KAUPULEHU*     NOT AVBL
KAPAPALA*        N/A     73  67  80 E3G12       N/A
LOWER KAHUKU*    N/A     68 -36   1 E2G12       N/A
PUHE CS*         N/A     82  70  65 W7          N/A
PUHO CS*         N/A     85  69  57 NW6G16      N/A
PTA KEAMUKU*     N/A     70  63  78 CALM        N/A
WAIKOLOA*      NOT AVBL
$$

HIZ027>028-270000-
BIG ISLAND OF HAWAII INTERIOR AND SUMMMITS-

CITY           SKY/WX    TMP DP  RH WIND       PRES   REMARKS
BRADSHAW FIELD CLOUDY    68  47  47 SE13G21   30.37F
MK VISITOR CEN   N/A     52  45  76 S12         N/A
MAUNA KEA*       N/A     43   3  19 W7G26       N/A
MAUNA LOA*       N/A     50  41  71 MISG        N/A
MAUNA LOA 1*   NOT AVBL
PTA KIPUKA*      N/A     66  61  82 NW7G13      N/A
PTA RANGE 17*    N/A     63  57  82 NW12G21     N/A
PTA WEST*        N/A     54  48  82 NW8G14      N/A
NENE CABIN*      N/A     57  52  82 E8G16       N/A
AHUMOA*        NOT AVBL
PTA PORTABLE*  NOT AVBL
PUU MALI*        N/A     57  57 100 W8G18       N/A
$$

HIC003-270000-
NORTHWEST ISLANDS-

CITY           SKY/WX    TMP DP  RH WIND       PRES   REMARKS
MIDWAY ISLAND  PTSUNNY   77  70  78 W5        30.14S
MIDWAY NOS*      N/A     75 N/A N/A MISG      30.12S
FRENCH FRIGATE NOT AVBL
$$

PHZ110>124-180-270000-
BUOY REPORTS

STATION/POSITION TIME  TEMP    WIND        PRES    WAVE   SWELL
                       AIR SEA DIR/SP/G            HT/PER HT/DIR
                 (UTC) (F)     (DEG/KT/KT) (MB)    (FT/S) (FT/D)
BUOY 51001       2300   79 80   70/ 10/ 12 1018.6F
BUOY 51101       2250   78 78  120/ 10/ 12 1019.5F   4/ 8   3/ 80
BUOY 51100       NOT AVBL
BUOY 51002       2250   78 79   80/ 14/ 17 1016.6F   5/ 8   3/ 90
BUOY 51003       2250   78 80  120/ 10/ 12 1017.6F   4/ 8   3/ 90
BUOY 51004       2250   78 79   70/ 14/ 16 1017.8F   5/ 7   3/ 90
BARBERS PT BUOY  NOT AVBL
WAIMEA BAY BUOY  2304      78                N/A     3/ 8
KAILUA BAY BUOY  2311      78                N/A     4/ 5   2/150
LANAI BUOY       2315      80                N/A     3/18   3/210
BARBERS PT 2     2303      80                N/A     2/11   2/200
PAUWELA MAUI     2309      78                N/A     4/ 8
HILO             2312      80                N/A     5/ 7
KANEOHE BAY BUOY 2306      78                N/A     3/ 7
HANALEI KAUAI    NOT AVBL
KAHULUI HARBOR   2200      78   60/ 11/ 15 1017.9F
HONOLULU HARBOR  2300          250/  5/  7 1019.1F
KILO NALU        NOT AVBL
HILO HARBOR      2300           90/  8/ 11 1018.0F
MOKUOLOE         2200      80                N/A
NAWILIWILI       2300          110/  6/  7 1018.9F
WHOTS BUOY       NOT AVBL
BUOY 51028       NOT AVBL
$$

......................KEY........................................
  SKY/WX - SKY CONDITIONS/PRESENT WEATHER
  TMP    - TEMPERATURE IN FAHRENHEIT
  DWPT   - DEWPOINT IN FAHRENHEIT
  RH     - RELATIVE HUMIDITY IN PERCENT
  WIND   - DIRECTION AND SPEED /MPH FOR ISLANDS...KTS FOR BUOYS/
  PRES   - MEAN SEA LEVEL PRESSURE IN INCHES OF HG
  VSB    - VISIBILITY IN MILES
  HX     - HEAT INDEX
  WCI    - WIND CHILL INDEX
  VRB    - VARIABLE WIND DIRECTION
  N/A    - NOT AVAILABLE



USA.gov is the U.S. government's official web portal to all federal, state and local government web resources and services.